|
NORAD ID: 15699 Int'l Code: 1985-037C
Perigee: 19,103.7 km
Apogee: 19,175.9 km
Inclination: 64.2 °
Period: 675.8 minutes
Semi major axis: 25510 km
Launch date: May 17, 1985
Source: Commonwealth of Independent States (former USSR) (CIS)
Two Line Element Set (TLE):
1 15699U 85037C 13142.65948852 .00000006 00000-0 00000+0 0 4597
2 15699 064.2224 237.2805 0014163 011.2369 133.4604 02.13067383217998
Source:
NASA's NSSDC Master Catalog entry for COSMOS 1652 (GLONASS)
|